Showing default

ELEVATION-1, 62677

Orbit data source: Space-Track

ELEVATION-1, 62677 is a UK payload satellite in SSO that was launched on Tue, 14 Jan 2025 UTC via an FALCON 9 launch vehicle from the Air Force Western Test Range (AFWTR). Payload-class satellites include a variety of spacecraft equipped with specific instruments for various scientific and technological missions. These include communications satellites like Starlink; space stations such as the ISS; scientific satellites like the Hubble; Earth observation satellites from companies like Planet Labs, Umbra, and HawkEye 360; GPS; miniature CubeSats for education and research; and military/defense satellites.

Loading next visibility...
Identifier
62677, 2025-009BW
Orbit
SSO
Country
Flag of UKUK
Related business
Manufacturer
XDLINX
Mission
Operational Commercial Communications
Bus & Motor
CUBESAT 6U, Unknown motor
Mass
~10 kg wet, ~10 kg dry
Launch date (UTC)
2025-01-14 (1 year ago)
Launch vehicle
FALCON 9
Launch site
Air Force Western Test Range (AFWTR)
Object type
Payload
Rocket body
Debris
Shape & HBR
Box + 2 Pan, 0.5 m
Radar Cross Section
0.080 m², Medium (>0.1 m² and < 1m²)

Expand to show TLE details & history
Last TLE update: 23 hours ago

TLE from 23 hours ago
0 ELEVATION-1
1 62677U 25009BW  26170.91353601  .00024138  00000-0  56498-3 0  9991
2 62677  97.3827 256.1556 0002483 297.4358  62.6636 15.42120028137242
Epoch: 2026-06-19T21:55Z
TLE epoch observation values (Epoch: 2026-06-19T21:55:29.511Z)
Latitude
-0.00005°
Longitude
19.14696°
Altitude
442.197 km
Speed
7.647 km/s
True Right ascension
17h 04m 37s
True Declination
0° 00' 00"
Sunlit
Object was in full shadow at epoch
Visualization orbit readout
Latitude
Unknown
Longitude
Unknown
Altitude
Unknown
Speed
Unknown
Apparent Right ascension
Unknown
Apparent Declination
Unknown
Sunlit
N/A
Visualization observer readout
Local Sidereal Time
07:21:49
Azimuth
Unknown
Elevation
Unknown
Doppler factor
Unknown
Orbital elements
Apogee altitude
438.481 km
Perigee altitude
435.097 km
Semi-major axis
6,814.926 km
Eccentricity
0.00025
Inclination
97.3827°
RAAN
256.1556°
Arg. of periapsis
297.4358°
True anomaly
62.68888°
Mean anomaly
62.6636°
Eccentric anomaly
62.67624°
Mean motion
3.8579 °/min
Orbital period
93.31 mins
BSTAR
0.00056498
Loading maneuver chart data...
Computing Atmospheric mass density...
Loading historical data...
Loading historical data...
Loading historical data...
Loading historical data...
Loading historical data...
Loading historical data...
Loading historical data...

Documentation

Showing up to 5 results
|